TimeCDT,TemperatureF,Dew PointF,Humidity,Sea Level PressureIn,VisibilityMPH,Wind Direction,Wind SpeedMPH,Gust SpeedMPH,PrecipitationIn,Events,Conditions,WindDirDegrees,DateUTC
12:53 AM,69.1,64.0,84,30.04,10.0,East,6.9,-,N/A,,Overcast,100,2013-10-01 05:53:00
1:53 AM,69.1,62.1,78,30.04,10.0,East,6.9,-,N/A,,Overcast,100,2013-10-01 06:53:00
2:53 AM,69.1,61.0,75,30.04,10.0,ESE,5.8,-,N/A,,Overcast,120,2013-10-01 07:53:00
3:53 AM,69.1,61.0,75,30.05,10.0,East,3.5,-,N/A,,Overcast,90,2013-10-01 08:53:00
4:53 AM,68.0,61.0,78,30.06,10.0,East,3.5,-,N/A,,Overcast,90,2013-10-01 09:53:00
5:53 AM,68.0,61.0,78,30.07,10.0,East,3.5,-,N/A,,Overcast,100,2013-10-01 10:53:00
6:53 AM,68.0,61.0,78,30.09,10.0,ESE,4.6,-,N/A,,Overcast,120,2013-10-01 11:53:00
7:53 AM,69.1,61.0,75,30.10,10.0,NNE,3.5,-,N/A,,Overcast,30,2013-10-01 12:53:00
8:53 AM,73.9,61.0,64,30.11,10.0,East,5.8,-,N/A,,Mostly Cloudy,100,2013-10-01 13:53:00
9:53 AM,78.1,63.0,60,30.12,10.0,East,8.1,-,N/A,,Mostly Cloudy,100,2013-10-01 14:53:00
10:53 AM,80.1,64.0,58,30.11,10.0,East,5.8,-,N/A,,Clear,100,2013-10-01 15:53:00
11:53 AM,84.0,64.9,53,30.09,10.0,ENE,6.9,-,N/A,,Mostly Cloudy,70,2013-10-01 16:53:00
12:53 PM,84.9,63.0,48,30.07,10.0,Variable,6.9,-,N/A,,Scattered Clouds,0,2013-10-01 17:53:00
1:53 PM,86.0,63.0,46,30.04,10.0,NE,8.1,-,N/A,,Scattered Clouds,40,2013-10-01 18:53:00
2:53 PM,82.9,64.0,53,30.04,10.0,East,4.6,-,N/A,,Overcast,80,2013-10-01 19:53:00
3:53 PM,82.9,63.0,51,30.03,10.0,East,5.8,-,N/A,,Overcast,100,2013-10-01 20:53:00
4:53 PM,82.0,64.9,56,30.03,10.0,ENE,4.6,-,N/A,,Overcast,70,2013-10-01 21:53:00
5:53 PM,80.1,66.9,64,30.04,10.0,Calm,Calm,-,N/A,,Overcast,0,2013-10-01 22:53:00
6:53 PM,73.9,68.0,82,30.05,10.0,Calm,Calm,-,N/A,,Mostly Cloudy,0,2013-10-01 23:53:00
7:53 PM,73.0,66.9,81,30.06,10.0,Calm,Calm,-,N/A,,Clear,0,2013-10-02 00:53:00
8:53 PM,69.1,66.0,90,30.08,10.0,Calm,Calm,-,N/A,,Scattered Clouds,0,2013-10-02 01:53:00
9:53 PM,70.0,66.0,87,30.09,10.0,Calm,Calm,-,N/A,,Clear,0,2013-10-02 02:53:00
10:53 PM,69.1,66.0,90,30.09,10.0,Calm,Calm,-,N/A,,Clear,0,2013-10-02 03:53:00
11:53 PM,68.0,64.0,87,30.09,10.0,Calm,Calm,-,N/A,,Partly Cloudy,0,2013-10-02 04:53:00